When you browse on this site, cookies collect data to enhance your experience and personalize the content and advertising you see.
Visit our Privacy Policy to learn more. By continuing to use the site, you agree to this use of cookies and data.
  • In Lithuania
  • List of Countries
  • For 7 days
  • Water Temperature
  • Satellite Maps
  • Weather Map
  • Weather Widgets
  • user-avatar
    Login

    Hourly Weather Stepanovo

    Today, 20 March, Wednesday

    Time Temperature Precipitation Wind Pressure Humidity
    00:00 -2°C° 0.1 mm 2 mps 747 mmHg 95%
    01:00 0°C° 0.1 mm 1 mps 747 mmHg 95%
    02:00 0°C° 0 mm 1 mps 747 mmHg 96%
    03:00 -1°C° 0.2 mm 2 mps 747 mmHg 96%
    04:00 -1°C° 0.2 mm 2 mps 747 mmHg 96%
    05:00 -1°C° 0.2 mm 2 mps 747 mmHg 96%
    06:00 -1°C° 0 mm 2 mps 747 mmHg 97%
    07:00 -1°C° 0 mm 2 mps 747 mmHg 97%
    08:00 -1°C° 0 mm 2 mps 748 mmHg 97%
    09:00 -1°C° 0 mm 2 mps 748 mmHg 97%
    10:00 +1°C° 0 mm 2 mps 748 mmHg 98%
    11:00 +1°C° 0 mm 2 mps 748 mmHg 98%
    12:00 +1°C° 0.1 mm 2 mps 748 mmHg 97%
    13:00 +1°C° 0.1 mm 3 mps 748 mmHg 96%
    14:00 +1°C° 0.1 mm 3 mps 748 mmHg 95%
    15:00 +2°C° 0.1 mm 2 mps 748 mmHg 95%
    16:00 +1°C° 0.1 mm 2 mps 748 mmHg 94%
    17:00 +1°C° 0.1 mm 2 mps 748 mmHg 93%
    18:00 +1°C° 0.1 mm 2 mps 748 mmHg 94%
    19:00 +1°C° 0.1 mm 2 mps 748 mmHg 94%
    20:00 -1°C° 0.1 mm 2 mps 748 mmHg 94%
    21:00 -1°C° 0 mm 2 mps 748 mmHg 93%
    22:00 -2°C° 0 mm 2 mps 748 mmHg 93%
    23:00 -2°C° 0 mm 2 mps 747 mmHg 92%

    Tomorrow, 21 March, Thursday

    Time Temperature Precipitation Wind Pressure Humidity
    00:00 -2°C° 0 mm 2 mps 747 mmHg 93%
    01:00 -3°C° 0 mm 2 mps 747 mmHg 94%
    02:00 -3°C° 0 mm 2 mps 746 mmHg 94%
    03:00 -3°C° 0.1 mm 2 mps 746 mmHg 94%
    04:00 -2°C° 0.1 mm 2 mps 746 mmHg 94%
    05:00 -2°C° 0.1 mm 3 mps 746 mmHg 95%
    06:00 -2°C° 0.2 mm 3 mps 746 mmHg 94%
    07:00 -2°C° 0.2 mm 3 mps 746 mmHg 93%
    08:00 -1°C° 0.2 mm 3 mps 746 mmHg 93%
    09:00 -1°C° 0.1 mm 3 mps 746 mmHg 94%
    10:00 0°C° 0.1 mm 3 mps 746 mmHg 94%
    11:00 0°C° 0.1 mm 3 mps 746 mmHg 95%
    12:00 0°C° 0.1 mm 3 mps 746 mmHg 94%
    13:00 +1°C° 0.1 mm 3 mps 747 mmHg 92%
    14:00 0°C° 0.1 mm 4 mps 747 mmHg 91%
    15:00 0°C° 0 mm 3 mps 747 mmHg 91%
    16:00 0°C° 0 mm 3 mps 747 mmHg 92%
    17:00 0°C° 0 mm 3 mps 747 mmHg 92%
    18:00 0°C° 0 mm 3 mps 747 mmHg 93%
    19:00 +1°C° 0 mm 2 mps 747 mmHg 93%
    20:00 -1°C° 0 mm 2 mps 747 mmHg 94%
    21:00 -1°C° 0 mm 2 mps 747 mmHg 94%
    22:00 -2°C° 0 mm 2 mps 747 mmHg 94%
    23:00 -2°C° 0 mm 2 mps 746 mmHg 95%

    Day after tomorrow, 22 March, Friday

    Time Temperature Precipitation Wind Pressure Humidity
    00:00 -2°C° 0 mm 2 mps 746 mmHg 94%
    01:00 -2°C° 0 mm 3 mps 745 mmHg 94%
    02:00 -2°C° 0 mm 3 mps 744 mmHg 94%
    03:00 -2°C° 0.8 mm 3 mps 744 mmHg 94%
    04:00 -2°C° 0.8 mm 4 mps 743 mmHg 94%
    05:00 -1°C° 0.8 mm 4 mps 742 mmHg 94%
    06:00 -1°C° 0.2 mm 4 mps 742 mmHg 93%
    07:00 -1°C° 0.2 mm 4 mps 741 mmHg 92%
    08:00 0°C° 0.2 mm 4 mps 741 mmHg 91%
    09:00 -1°C° 0.1 mm 5 mps 741 mmHg 88%
    10:00 -1°C° 0.1 mm 5 mps 741 mmHg 85%
    11:00 -1°C° 0.1 mm 5 mps 741 mmHg 82%
    12:00 -1°C° 0.1 mm 5 mps 742 mmHg 83%
    13:00 -2°C° 0.1 mm 5 mps 742 mmHg 84%
    14:00 -2°C° 0.1 mm 5 mps 742 mmHg 85%
    15:00 -1°C° 0.1 mm 5 mps 742 mmHg 86%
    16:00 -1°C° 0.1 mm 4 mps 743 mmHg 87%
    17:00 -1°C° 0.1 mm 4 mps 743 mmHg 88%
    18:00 -1°C° 0.1 mm 4 mps 744 mmHg 87%
    19:00 -1°C° 0.1 mm 4 mps 744 mmHg 86%
    20:00 -1°C° 0.1 mm 5 mps 745 mmHg 85%
    21:00 -1°C° 0 mm 5 mps 745 mmHg 86%
    22:00 -2°C° 0 mm 4 mps 746 mmHg 86%
    23:00 -2°C° 0 mm 4 mps 746 mmHg 86%

    23 March, Saturday

    Time Temperature Precipitation Wind Pressure Humidity
    00:00 -2°C° 0 mm 3 mps 747 mmHg 88%
    01:00 -2°C° 0 mm 3 mps 747 mmHg 90%
    02:00 -3°C° 0 mm 2 mps 747 mmHg 91%
    03:00 -4°C° 0 mm 2 mps 747 mmHg 93%
    04:00 -5°C° 0 mm 2 mps 747 mmHg 95%
    05:00 -4°C° 0 mm 1 mps 747 mmHg 96%
    06:00 -3°C° 0 mm 1 mps 747 mmHg 94%
    07:00 -2°C° 0 mm 1 mps 747 mmHg 92%
    08:00 -1°C° 0 mm 1 mps 747 mmHg 89%
    09:00 -2°C° 0 mm 2 mps 746 mmHg 88%
    10:00 -1°C° 0 mm 2 mps 744 mmHg 87%
    11:00 0°C° 0 mm 3 mps 743 mmHg 86%
    12:00 -1°C° 0.1 mm 4 mps 742 mmHg 85%
    13:00 -1°C° 0.1 mm 4 mps 741 mmHg 84%
    14:00 -1°C° 0.1 mm 4 mps 739 mmHg 83%
    15:00 -1°C° 1.1 mm 4 mps 738 mmHg 85%
    16:00 -1°C° 1.1 mm 4 mps 737 mmHg 88%
    17:00 -1°C° 1.1 mm 4 mps 736 mmHg 91%
    18:00 -1°C° 0.2 mm 5 mps 736 mmHg 88%
    19:00 -1°C° 0.2 mm 5 mps 736 mmHg 85%
    20:00 -1°C° 0.2 mm 5 mps 736 mmHg 82%
    21:00 -1°C° 0 mm 5 mps 735 mmHg 82%
    22:00 -2°C° 0 mm 5 mps 735 mmHg 81%
    23:00 -3°C° 0 mm 4 mps 735 mmHg 80%

    24 March, Sunday

    Time Temperature Precipitation Wind Pressure Humidity
    00:00 -4°C° 0 mm 5 mps 735 mmHg 81%
    01:00 -4°C° 0 mm 5 mps 735 mmHg 81%
    02:00 -4°C° 0 mm 5 mps 734 mmHg 81%
    03:00 -4°C° 0 mm 5 mps 734 mmHg 82%
    04:00 -4°C° 0 mm 5 mps 734 mmHg 82%
    05:00 -4°C° 0 mm 4 mps 734 mmHg 83%
    06:00 -5°C° 0 mm 5 mps 733 mmHg 81%
    07:00 -4°C° 0 mm 5 mps 733 mmHg 79%
    08:00 -4°C° 0 mm 6 mps 733 mmHg 78%
    09:00 -4°C° 0.2 mm 6 mps 733 mmHg 80%
    10:00 -4°C° 0.2 mm 7 mps 732 mmHg 82%
    11:00 -3°C° 0.2 mm 7 mps 732 mmHg 84%
    12:00 -3°C° 0.4 mm 7 mps 733 mmHg 83%
    13:00 -4°C° 0.4 mm 8 mps 733 mmHg 82%
    14:00 -2°C° 0.4 mm 8 mps 733 mmHg 80%
    15:00 -2°C° 0.4 mm 8 mps 734 mmHg 81%
    16:00 -4°C° 0.4 mm 8 mps 735 mmHg 81%
    17:00 -3°C° 0.4 mm 7 mps 736 mmHg 82%
    18:00 -3°C° 0.2 mm 7 mps 737 mmHg 82%
    19:00 -4°C° 0.2 mm 7 mps 738 mmHg 81%
    20:00 -4°C° 0.2 mm 6 mps 739 mmHg 81%
    21:00 -4°C° 0 mm 6 mps 739 mmHg 82%
    22:00 -5°C° 0 mm 5 mps 740 mmHg 83%
    23:00 -5°C° 0 mm 4 mps 740 mmHg 85%

    25 March, Monday

    Time Temperature Precipitation Wind Pressure Humidity
    00:00 -7°C° 0 mm 4 mps 740 mmHg 87%
    01:00 -7°C° 0 mm 3 mps 741 mmHg 89%
    02:00 -8°C° 0 mm 3 mps 741 mmHg 92%
    03:00 -7°C° 0 mm 2 mps 741 mmHg 93%
    04:00 -8°C° 0 mm 2 mps 740 mmHg 94%
    05:00 -7°C° 0 mm 1 mps 740 mmHg 95%
    06:00 -6°C° 0 mm 1 mps 740 mmHg 91%
    07:00 -4°C° 0 mm 1 mps 740 mmHg 88%
    08:00 -2°C° 0 mm 1 mps 739 mmHg 85%
    09:00 -1°C° 0 mm 1 mps 739 mmHg 85%
    10:00 -2°C° 0 mm 2 mps 739 mmHg 84%
    11:00 -1°C° 0 mm 2 mps 738 mmHg 84%
    12:00 +1°C° 0 mm 2 mps 738 mmHg 82%
    13:00 +2°C° 0 mm 2 mps 737 mmHg 79%
    14:00 +2°C° 0 mm 2 mps 737 mmHg 76%
    15:00 +2°C° 0 mm 2 mps 736 mmHg 78%
    16:00 +1°C° 0 mm 2 mps 736 mmHg 79%
    17:00 +1°C° 0 mm 2 mps 735 mmHg 80%
    18:00 -1°C° 0.1 mm 2 mps 735 mmHg 82%
    19:00 -1°C° 0.1 mm 3 mps 735 mmHg 84%
    20:00 -1°C° 0.1 mm 3 mps 734 mmHg 85%
    21:00 -2°C° 0.2 mm 3 mps 734 mmHg 87%
    22:00 -2°C° 0.2 mm 3 mps 734 mmHg 88%
    23:00 -3°C° 0.2 mm 4 mps 733 mmHg 90%
    Show more